Regional Weather Roundup
Issued by NWS

Home | Current Version | Previous Version | Graphics & Text | Print | Product List | Glossary Off
Versions: 1 2 3 4 5 6 7 8 9 10 11 12 13 14 15 16 17 18 19 20 21 22 23 24 25 26 27 28 29 30 31 32 33 34 35 36 37 38 39 40 41 42 43 44 45 46 47 48 49 50

000
ASUS43 KDMX 251907
RWRIA

WEATHER ROUNDUP FOR IOWA
NATIONAL WEATHER SERVICE DES MOINES IA
200 PM CDT MON MAY 25 2015

NOTE: "FAIR" INDICATES FEW OR NO CLOUDS BELOW 12,000 FEET WITH NO
SIGNIFICANT WEATHER AND/OR OBSTRUCTIONS TO VISIBILITY.

* - THESE STATIONS ARE NOT NWS STATIONS...THUS NOT UNDER NWS
QUALITY CONTROL.  THEY ALSO DO NOT REPORT WEATHER SUCH
AS PRECIPITATION OR FOG.

IAZ001>003-012>014-020>022-031>034-043>046-252000-
   NORTHWEST IOWA

CITY           SKY/WX    TMP DP  RH WIND       PRES   REMARKS
CARROLL *      MOSUNNY   75  59  57 SW21G28   29.81R
CHEROKEE *     PTSUNNY   73  63  68 SW16      29.77R
DENISON *      MOSUNNY   75  61  60 S13G21    29.79R
LE MARS *      PTSUNNY   73  61  64 SW17      29.77S
ORANGE CITY *  LGT RAIN  68  61  77 SW13      29.76S
SHELDON *      PTSUNNY   70  63  78 SW9       29.75S
SIOUX CITY     MOSUNNY   75  60  59 SW9       29.77R
SPENCER        CLOUDY    72  63  73 SW10      29.76S
STORM LAKE *   SUNNY     73  61  64 SW17G25   29.80R
$$

IAZ055>058-069>071-079>083-090>094-252000-
   SOUTHWEST IOWA

CITY           SKY/WX    TMP DP  RH WIND       PRES   REMARKS
ATLANTIC *     MOSUNNY   75  61  60 SW21G26   29.82S
AUDUBON *      MOSUNNY   75  63  64 SW14G22   29.83S
CLARINDA *     MOSUNNY   79  64  61 S16G26    29.84S HX  81
COUNCIL BLFS * PTSUNNY   75  59  57 S10G22    29.81F
CRESTON *      PTSUNNY   73  63  68 S15G25    29.85S
HARLAN  *      PTSUNNY   75  64  69 S14G23    29.85R
LAMONI         MOSUNNY   79  64  60 SW18G31   29.86S HX  81
RED OAK *      MOSUNNY   75  63  64 SW14G23   29.82F
SHENANDOAH *   MOSUNNY   79  63  57 SW20G28   29.82F HX  80
$$

IAZ047>049-059>061-072>074-084-252000-
   CENTRAL IOWA

CITY           SKY/WX    TMP DP  RH WIND       PRES   REMARKS
AMES           PTSUNNY   76  60  57 SW21G29   29.82R
ANKENY *       PTSUNNY   77  61  57 SW17G28   29.82S
CHARITON *     MOSUNNY   75  64  69 S20       29.86S
DES MOINES     MOSUNNY   79  59  50 SW21G29   29.83S HX  80
GRINNELL*      MOSUNNY   77  61  57 S17       29.85S
KNOXVILLE *    PTSUNNY   77  61  57 S18       29.84S
MARSHALLTOWN   PTSUNNY   77  63  61 SW18G25   29.82R
PELLA *        SUNNY     79  66  65 SW16G28   29.86S HX  81
PERRY *        CLOUDY    75  61  60 SW20G25   29.82R
$$

IAZ004>006-015-016-023>025-035-036-252000-
   NORTH CENTRAL IOWA

CITY           SKY/WX    TMP DP  RH WIND       PRES   REMARKS
ALGONA *       PTSUNNY   72 -29   1 SW16      29.77S
CLARION *      MOSUNNY   73  64  73 SW21      29.79S
ESTHERVILLE    PTSUNNY   72  62  71 W14G25    29.75S
FORT DODGE *   SUNNY     75  61  60 SW17G24   29.80S
MASON CITY     PTSUNNY   73  65  75 SW22G30   29.79S THUNDER
FOREST CITY *  CLOUDY    70  63  78 S18G24    29.77S
IOWA FALLS *     N/A     75  61  60 SW20G25   29.82S
$$

IAZ007>011-017>019-026>030-037>042-050>054-066-252000-
   NORTHEAST IOWA

CITY           SKY/WX    TMP DP  RH WIND       PRES   REMARKS
CEDAR RAPIDS   SUNNY     76  65  68 S20G26    29.84F
CHARLES CITY * PTSUNNY   73  68  83 S22G29    29.79S
CLINTON *      PTSUNNY   77  63  61 SW17G23   29.89S
DECORAH *      PTSUNNY   73  64  73 SW15G24   29.78S
DUBUQUE        PTSUNNY   74  63  68 SW18G28   29.85R
MONTICELLO *   MOSUNNY   75  64  69 SW17G25   29.85R
OELWEIN *      PTSUNNY   73  64  73 SW18G29   29.82S
WATERLOO       MOSUNNY   76  63  64 SW17G26   29.80S
$$

IAZ064-065-067-068-078-252000-
   EAST CENTRAL IOWA

CITY           SKY/WX    TMP DP  RH WIND       PRES   REMARKS
DAVENPORT      MOSUNNY   76  62  62 SW16      29.89R
IOWA CITY      MOSUNNY   76  63  64 S17       29.87S
MT. PLEASANT * MOSUNNY   75  64  69 SW21G26   29.91R
MUSCATINE *    MOSUNNY   77  64  65 SW16G23   29.89R
QUAD CITIES    MOSUNNY   77  62  59 SW16G24   29.88S
$$

IAZ062-063-075>077-085>089-095>099-252000-
   SOUTHEAST IOWA

CITY           SKY/WX    TMP DP  RH WIND       PRES   REMARKS
BURLINGTON     MOSUNNY   76  64  66 SW18G25   29.91R
FAIRFIELD *    MOSUNNY   75  63  64 S20G28    29.89S
FORT MADISON * SUNNY     75  64  69 S14G20    29.93R
KEOKUK *       SUNNY     75  63  64 S13G22    29.92R
OSKALOOSA *      N/A     77  61  57 S18       29.87R
CENTERVILLE *  SUNNY     75  75 100 S13G22    29.90S
OTTUMWA        SUNNY     77  63  61 S18       29.86S
WASHINGTON *   MOSUNNY   77  64  65 S18G30    29.90R
$$

ABBREVIATIONS USED IN REMARKS
   TC - TEMPERATURES IN CELSIUS
  WCI - WIND CHILL INDEX
   HX - HEAT INDEX
  VSB - VISIBILITY
$$



USA.gov is the U.S. government's official web portal to all federal, state and local government web resources and services.